International Skating Union - Official Site

ISU World Allround Speed Skating Championships 2015
March 7 - 8, 2015

Draw | Lap Times | Index | Classification

Referee: Erik  ØSMUNDSET  (NOR)
Starter: Andrè  de VRIES  (NED)
StartTime: EndTime: Air Temp: Ice Temp: Humidity:
14:50 16:44 18℃ -7℃ 30%
Result 5000m Men
Rankings as of Mar 7 2015 4:58PM
Rank: No.: Name: Nation: Time: Behind: Points:
1 44 Sven  Kramer NED NED 6:07.49200m - 18.35 - (18.3)
600m - 47.68 - (29.3)
1000m - 1:16.96 - (29.2)
1400m - 1:45.76 - (28.8)
1800m - 2:14.37 - (28.6)
2200m - 2:43.52 - (29.1)
2600m - 3:12.42 - (28.9)
3000m - 3:41.47 - (29.0)
3400m - 4:10.19 - (28.7)
3800m - 4:39.18 - (28.9)
4200m - 5:08.41 - (29.2)
4600m - 5:37.86 - (29.4)
5000m - 6:07.49 - (29.6)
36.749
2 48 Sverre  Lunde Pedersen NOR NOR 6:11.77200m - 18.58 - (18.5)
600m - 47.74 - (29.1)
1000m - 1:17.00 - (29.2)
1400m - 1:46.05 - (29.0)
1800m - 2:15.20 - (29.1)
2200m - 2:44.54 - (29.3)
2600m - 3:13.74 - (29.2)
3000m - 3:42.92 - (29.1)
3400m - 4:12.34 - (29.4)
3800m - 4:41.68 - (29.3)
4200m - 5:11.12 - (29.4)
4600m - 5:40.83 - (29.7)
5000m - 6:11.77 - (30.9)
4.28 37.177
3 54 Denis  Yuskov RUS RUS 6:13.64200m - 18.26 - (18.2)
600m - 47.15 - (28.8)
1000m - 1:16.29 - (29.1)
1400m - 1:45.27 - (28.9)
1800m - 2:14.42 - (29.1)
2200m - 2:43.59 - (29.1)
2600m - 3:12.83 - (29.2)
3000m - 3:42.55 - (29.7)
3400m - 4:12.18 - (29.6)
3800m - 4:42.32 - (30.1)
4200m - 5:13.67 - (31.3)
4600m - 5:43.68 - (30.0)
5000m - 6:13.64 - (29.9)
6.15 37.364
4 35 Alexis  Contin FRA FRA 6:15.02200m - 18.78 - (18.7)
600m - 48.59 - (29.8)
1000m - 1:18.47 - (29.8)
1400m - 1:47.82 - (29.3)
1800m - 2:17.28 - (29.4)
2200m - 2:46.97 - (29.6)
2600m - 3:16.55 - (29.5)
3000m - 3:46.25 - (29.7)
3400m - 4:16.00 - (29.7)
3800m - 4:45.67 - (29.6)
4200m - 5:15.34 - (29.6)
4600m - 5:45.01 - (29.6)
5000m - 6:15.02 - (30.0)
7.53 37.502
5 32 Bart  Swings BEL BEL 6:15.42200m - 18.71 - (18.7)
600m - 47.54 - (28.8)
1000m - 1:16.63 - (29.0)
1400m - 1:45.70 - (29.0)
1800m - 2:14.98 - (29.2)
2200m - 2:44.53 - (29.5)
2600m - 3:14.25 - (29.7)
3000m - 3:43.87 - (29.6)
3400m - 4:13.58 - (29.7)
3800m - 4:43.46 - (29.8)
4200m - 5:13.67 - (30.2)
4600m - 5:44.10 - (30.4)
5000m - 6:15.42 - (31.3)
7.93 37.542
6 36 Patrick  Beckert GER GER 6:16.60200m - 19.16 - (19.1)
600m - 48.37 - (29.2)
1000m - 1:17.99 - (29.6)
1400m - 1:47.49 - (29.5)
1800m - 2:17.00 - (29.5)
2200m - 2:46.79 - (29.7)
2600m - 3:16.58 - (29.7)
3000m - 3:46.59 - (30.0)
3400m - 4:16.45 - (29.8)
3800m - 4:46.34 - (29.8)
4200m - 5:16.29 - (29.9)
4600m - 5:46.12 - (29.8)
5000m - 6:16.60 - (30.4)
9.11 37.660
7 43 Douwe  de Vries NED NED 6:17.81200m - 19.09 - (19.0)
600m - 48.96 - (29.8)
1000m - 1:18.76 - (29.8)
1400m - 1:48.09 - (29.3)
1800m - 2:17.27 - (29.1)
2200m - 2:46.73 - (29.4)
2600m - 3:16.50 - (29.7)
3000m - 3:46.41 - (29.9)
3400m - 4:16.43 - (30.0)
3800m - 4:46.50 - (30.0)
4200m - 5:16.91 - (30.4)
4600m - 5:47.33 - (30.4)
5000m - 6:17.81 - (30.4)
10.32 37.781
8 33 Ted-Jan  Bloemen CAN CAN 6:22.40200m - 19.24 - (19.2)
600m - 48.59 - (29.3)
1000m - 1:17.95 - (29.3)
1400m - 1:47.37 - (29.4)
1800m - 2:17.20 - (29.8)
2200m - 2:46.88 - (29.6)
2600m - 3:16.96 - (30.0)
3000m - 3:47.38 - (30.4)
3400m - 4:18.04 - (30.6)
3800m - 4:48.73 - (30.6)
4200m - 5:19.69 - (30.9)
4600m - 5:50.93 - (31.2)
5000m - 6:22.40 - (31.4)
14.91 38.240
9 38 Andrea  Giovannini ITA ITA 6:23.62200m - 18.78 - (18.7)
600m - 48.10 - (29.3)
1000m - 1:18.04 - (29.9)
1400m - 1:48.03 - (29.9)
1800m - 2:18.16 - (30.1)
2200m - 2:48.22 - (30.0)
2600m - 3:18.46 - (30.2)
3000m - 3:48.93 - (30.4)
3400m - 4:19.64 - (30.7)
3800m - 4:50.43 - (30.7)
4200m - 5:21.29 - (30.8)
4600m - 5:52.39 - (31.1)
5000m - 6:23.62 - (31.2)
16.13 38.362
10 47 Simen  Spieler Nilsen NOR NOR 6:24.69200m - 18.74 - (18.7)
600m - 48.33 - (29.5)
1000m - 1:18.10 - (29.7)
1400m - 1:48.59 - (30.4)
1800m - 2:18.70 - (30.1)
2200m - 2:49.04 - (30.3)
2600m - 3:19.40 - (30.3)
3000m - 3:49.93 - (30.5)
3400m - 4:20.41 - (30.4)
3800m - 4:50.85 - (30.4)
4200m - 5:21.66 - (30.8)
4600m - 5:52.87 - (31.2)
5000m - 6:24.69 - (31.8)
17.20 38.469
11 34 Denny  Morrison CAN CAN 6:25.01200m - 19.21 - (19.2)
600m - 48.50 - (29.2)
1000m - 1:18.35 - (29.8)
1400m - 1:48.23 - (29.8)
1800m - 2:18.36 - (30.1)
2200m - 2:48.22 - (29.8)
2600m - 3:18.17 - (29.9)
3000m - 3:48.39 - (30.2)
3400m - 4:18.85 - (30.4)
3800m - 4:49.52 - (30.6)
4200m - 5:20.54 - (31.0)
4600m - 5:52.23 - (31.6)
5000m - 6:25.01 - (32.7)
17.52 38.501
12 50 Konrad  Niedzwiedzki POL POL 6:25.09200m - 19.20 - (19.2)
600m - 48.83 - (29.6)
1000m - 1:18.42 - (29.5)
1400m - 1:48.39 - (29.9)
1800m - 2:18.63 - (30.2)
2200m - 2:49.38 - (30.7)
2600m - 3:20.20 - (30.8)
3000m - 3:51.10 - (30.9)
3400m - 4:21.88 - (30.7)
3800m - 4:52.82 - (30.9)
4200m - 5:23.74 - (30.9)
4600m - 5:54.60 - (30.8)
5000m - 6:25.09 - (30.4)
17.60 38.509
13 42 Haralds  Silovs LAT LAT 6:25.22200m - 18.78 - (18.7)
600m - 47.77 - (28.9)
1000m - 1:17.98 - (30.2)
1400m - 1:48.26 - (30.2)
1800m - 2:18.52 - (30.2)
2200m - 2:48.78 - (30.2)
2600m - 3:19.18 - (30.4)
3000m - 3:49.80 - (30.6)
3400m - 4:20.61 - (30.8)
3800m - 4:51.39 - (30.7)
4200m - 5:22.35 - (30.9)
4600m - 5:53.63 - (31.2)
5000m - 6:25.22 - (31.5)
17.73 38.522
14 46 Håvard  Bøkko NOR NOR 6:25.79200m - 19.02 - (19.0)
600m - 48.33 - (29.3)
1000m - 1:17.66 - (29.3)
1400m - 1:47.30 - (29.6)
1800m - 2:17.11 - (29.8)
2200m - 2:47.11 - (30.0)
2600m - 3:17.46 - (30.3)
3000m - 3:47.93 - (30.4)
3400m - 4:18.74 - (30.8)
3800m - 4:49.97 - (31.2)
4200m - 5:21.72 - (31.7)
4600m - 5:53.63 - (31.9)
5000m - 6:25.79 - (32.1)
18.30 38.579
15 41 Seung-Hoon  Lee KOR KOR 6:26.91200m - 18.96 - (18.9)
600m - 48.49 - (29.5)
1000m - 1:18.95 - (30.4)
1400m - 1:48.73 - (29.7)
1800m - 2:18.55 - (29.8)
2200m - 2:48.59 - (30.0)
2600m - 3:18.89 - (30.3)
3000m - 3:49.33 - (30.4)
3400m - 4:20.09 - (30.7)
3800m - 4:51.01 - (30.9)
4200m - 5:22.61 - (31.6)
4600m - 5:54.54 - (31.9)
5000m - 6:26.91 - (32.3)
19.42 38.691
16 49 Zbigniew  Brodka POL POL 6:27.79200m - 19.01 - (19.0)
600m - 48.50 - (29.4)
1000m - 1:18.80 - (30.3)
1400m - 1:48.99 - (30.1)
1800m - 2:19.31 - (30.3)
2200m - 2:49.58 - (30.2)
2600m - 3:20.13 - (30.5)
3000m - 3:50.58 - (30.4)
3400m - 4:21.06 - (30.4)
3800m - 4:51.95 - (30.8)
4200m - 5:23.21 - (31.2)
4600m - 5:55.17 - (31.9)
5000m - 6:27.79 - (32.6)
20.30 38.779
17 52 Sergey  Gryaztsov RUS RUS 6:28.37200m - 18.48 - (18.4)
600m - 47.79 - (29.3)
1000m - 1:17.71 - (29.9)
1400m - 1:47.60 - (29.8)
1800m - 2:17.78 - (30.1)
2200m - 2:48.21 - (30.4)
2600m - 3:18.73 - (30.5)
3000m - 3:49.42 - (30.6)
3400m - 4:20.28 - (30.8)
3800m - 4:51.62 - (31.3)
4200m - 5:23.45 - (31.8)
4600m - 5:55.68 - (32.2)
5000m - 6:28.37 - (32.6)
20.88 38.837
18 31 Bram  Smallenbroek AUT AUT 6:31.33200m - 18.73 - (18.7)
600m - 47.54 - (28.8)
1000m - 1:16.92 - (29.3)
1400m - 1:46.87 - (29.9)
1800m - 2:16.92 - (30.0)
2200m - 2:47.22 - (30.3)
2600m - 3:17.68 - (30.4)
3000m - 3:48.53 - (30.8)
3400m - 4:19.98 - (31.4)
3800m - 4:52.43 - (32.4)
4200m - 5:25.46 - (33.0)
4600m - 5:58.09 - (32.6)
5000m - 6:31.33 - (33.2)
23.84 39.133
19 39 Shane  Williamson JPN JPN 6:34.92200m - 18.43 - (18.4)
600m - 47.40 - (28.9)
1000m - 1:16.80 - (29.4)
1400m - 1:46.81 - (30.0)
1800m - 2:17.12 - (30.3)
2200m - 2:47.92 - (30.8)
2600m - 3:18.95 - (31.0)
3000m - 3:50.55 - (31.6)
3400m - 4:22.50 - (31.9)
3800m - 4:54.83 - (32.3)
4200m - 5:27.42 - (32.5)
4600m - 6:00.83 - (33.4)
5000m - 6:34.92 - (34.0)
27.43 39.492
20 40 Cheol-Min  Kim KOR KOR 6:36.46200m - 19.35 - (19.3)
600m - 49.09 - (29.7)
1000m - 1:18.74 - (29.6)
1400m - 1:48.91 - (30.1)
1800m - 2:19.26 - (30.3)
2200m - 2:50.26 - (31.0)
2600m - 3:21.31 - (31.0)
3000m - 3:52.92 - (31.6)
3400m - 4:24.89 - (31.9)
3800m - 4:57.31 - (32.4)
4200m - 5:29.96 - (32.6)
4600m - 6:03.04 - (33.0)
5000m - 6:36.46 - (33.4)
28.97 39.646
21 37 Konrád  Nagy HUN HUN 6:40.61200m - 18.94 - (18.9)
600m - 48.58 - (29.6)
1000m - 1:18.46 - (29.8)
1400m - 1:48.98 - (30.5)
1800m - 2:19.33 - (30.3)
2200m - 2:50.19 - (30.8)
2600m - 3:21.25 - (31.0)
3000m - 3:52.95 - (31.7)
3400m - 4:25.07 - (32.1)
3800m - 4:57.88 - (32.8)
4200m - 5:31.47 - (33.5)
4600m - 6:05.89 - (34.4)
5000m - 6:40.61 - (34.7)
33.12 40.061
22 51 Jan  Szymanski POL POL 6:44.92200m - 18.65 - (18.6)
600m - 48.03 - (29.3)
1000m - 1:17.85 - (29.8)
1400m - 1:48.17 - (30.3)
1800m - 2:18.32 - (30.1)
2200m - 2:48.88 - (30.5)
2600m - 3:19.83 - (30.9)
3000m - 3:51.13 - (31.3)
3400m - 4:23.68 - (32.5)
3800m - 4:58.37 - (34.6)
4200m - 5:34.67 - (36.3)
4600m - 6:09.51 - (34.8)
5000m - 6:44.92 - (35.4)
37.43 40.492
23 53 Danil  Sinitsyn RUS RUS DQ200m - 19.78 - (19.7)
600m - 49.79 - (30.0)
1000m - 1:19.70 - (29.9)
1400m - 1:49.31 - (29.6)
1800m - 2:19.02 - (29.7)
2200m - 2:48.96 - (29.9)
2600m - 3:19.28 - (30.3)
3000m - 3:49.77 - (30.4)
3400m - 4:20.61 - (30.8)
3800m - 4:51.41 - (30.8)
4200m - 5:23.10 - (31.6)
4600m - 5:55.11 - (32.0)
5000m - 6:25.51 - (30.4)
-
24 45 Koen  Verweij NED NED WDR -